Retour au catalogue

FENGYUN 1C DEB

ActifPO
NORAD 29982·DEBRIS·🇨🇳 China

Lancé May 10, 1999 depuis Taiyuan Satellite Launch Center

Loading…

Prochains Passages (prochaines 24 heures)

TLE

FraisSource: Space-Track

Époque: Sep 14, 2026, 21:28 UTC

1 29982U 99025LG  26257.89468948  .00001721  00000-0  27717-3 0  9991
2 29982  99.3831 124.7949 0118914 165.6731 212.9049 14.68569811 43355

Suivez FENGYUN 1C DEB en temps réel avec AllMySat

Download on the App Store